Wind_Speed
74 68 61 55 51 44 51 52 56 56 53 43 39 40 46 52 45 44 54 50 49 33 37 40 46 42 45 48 27 23 28 31 35 36 38 34 34 36 37 33 34 35 34 31
56 46 37 44 42 45 41 35 43 45 39 24 25 27 27 26 33 39 45 44 34 52 34 31 38 47 41 30 26 28 29 33 37 34 35 30 39 33 41 45 41 32 34 36
49 33 39 40 29 34 28 31 31 19 23 23 22 24 20 16 21 22 22 29 31 27 37 40 39 40 45 25 30 31 35 33 32 34 33 34 35 38 33 43 44 37 31 39
42 33 38 26 27 26 29 32 26 23 22 24 25 23 19 17 14 11 13 13 16 25 26 31 34 39 36 34 29 31 36 35 32 30 31 33 34 38 41 43 40 42 37 39
33 21 25 16 16 19 23 25 23 23 22 25 23 18 19 15 8 11 13 9 11 14 19 23 27 27 29 28 31 32 33 35 29 29 31 34 35 35 36 37 40 39 37 41
19 22 27 13 10 17 23 17 13 13 15 14 17 21 23 20 19 16 17 15 19 22 20 24 31 31 30 26 26 30 33 32 27 25 29 29 31 34 35 38 39 39 39 40
19 21 18 17 21 19 14 14 13 13 10 10 15 20 19 16 15 17 18 22 27 27 27 24 25 30 29 27 26 29 31 25 26 27 27 24 25 25 25 25 28 27 34 34
18 11 12 8 12 16 12 12 12 9 10 9 7 9 16 17 20 18 20 20 23 28 27 22 24 28 28 28 25 28 26 26 25 28 29 28 30 29 28 28 28 33 33 29
7 13 19 17 17 13 14 14 10 6 3 6 11 14 15 18 22 21 25 26 25 30 24 19 21 27 30 25 25 25 24 23 25 27 28 29 28 29 30 31 33 34 35 36
8 9 3 19 15 14 12 9 8 6 6 9 11 15 19 25 25 26 30 30 26 23 22 17 21 31 28 22 21 20 21 21 23 23 23 24 25 28 30 32 36 39 42 44
7 2 8 3 9 17 9 8 8 9 11 16 18 21 24 26 21 22 26 29 22 22 22 18 17 17 16 18 18 19 19 20 21 22 23 23 24 26 30 34 34 34 30 30
2 2 3 5 5 5 7 11 14 16 20 23 26 29 27 26 19 19 19 17 19 24 25 20 19 19 21 19 18 17 17 16 15 17 19 21 21 21 22 26 33 29 26 28
4 3 5 8 10 13 16 19 22 26 30 34 35 33 27 21 18 19 16 19 18 25 28 25 22 19 18 17 18 15 13 11 11 13 14 16 18 19 19 17 20 21 22 24
7 8 12 16 18 21 24 28 32 33 28 26 26 25 20 17 18 17 17 20 18 26 31 26 24 23 18 19 19 17 16 14 14 16 16 15 15 16 17 19 18 19 22 23
12 17 18 23 26 29 27 24 25 28 25 23 21 17 14 15 17 15 11 13 13 27 28 26 26 23 22 22 22 22 21 20 20 21 21 20 17 16 15 16 18 20 22 24
15 17 20 20 19 15 17 21 23 20 15 14 10 11 12 14 15 13 10 12 16 17 29 28 30 24 21 22 25 25 25 24 26 23 22 21 19 19 20 19 20 21 23 23
19 19 21 20 19 18 19 19 16 16 12 10 10 11 13 14 14 14 11 8 10 22 20 17 21 20 23 23 25 26 27 27 26 23 22 21 21 22 22 24 25 25 23 23
21 20 17 16 11 17 19 20 19 14 12 9 10 12 14 14 15 17 17 12 13 15 17 19 24 26 25 26 27 28 25 21 19 19 22 24 24 24 24 25 27 25 23 22
19 21 19 16 12 15 12 15 14 13 13 11 12 13 13 10 12 15 20 21 20 19 20 22 23 25 27 27 25 22 19 20 21 22 24 26 27 27 26 26 25 23 21 21
20 21 18 15 14 14 14 13 12 10 10 10 9 8 9 11 14 17 17 20 22 23 24 25 26 27 25 28 27 24 23 24 26 29 30 31 31 29 27 25 23 22 22 22
18 19 20 19 17 16 15 14 12 12 11 9 10 10 11 11 12 14 15 17 20 22 23 25 27 29 31 30 34 32 30 30 29 31 32 31 30 27 24 21 20 20 21 23
21 21 21 21 21 20 20 17 15 13 12 11 11 11 12 14 15 17 18 19 21 21 23 25 26 27 29 30 31 31 30 31 29 27 25 24 23 20 18 18 19 20 22 24
27 26 25 24 24 22 21 22 21 19 16 14 12 11 12 14 16 18 20 21 22 22 22 23 23 24 25 25 26 27 26 24 22 21 19 18 16 16 17 18 19 21 22 24
39 36 33 30 26 24 23 21 20 21 23 23 23 20 18 16 16 17 19 20 21 21 22 23 22 22 23 22 22 20 19 17 15 16 17 17 16 16 17 18 19 21 22 25
43 39 32 29 27 27 27 24 22 21 22 22 23 24 24 21 19 19 19 18 18 19 20 20 20 20 19 16 16 15 15 16 17 16 15 15 16 17 18 20 21 23 26 28
38 36 32 31 30 29 29 27 24 20 18 19 21 20 21 21 22 21 19 19 19 19 19 19 20 19 17 17 17 17 17 17 16 16 16 16 17 19 21 23 25 28 30 32
38 36 33 32 32 31 31 30 27 24 20 17 16 17 19 20 20 21 20 19 19 20 20 21 20 19 18 18 18 18 18 17 17 18 18 19 20 22 24 27 29 31 33 34
Wind_Direction
281 283 283 282 277 276 270 267 266 273 276 282 275 273 269 270 266 258 254 270 255 268 248 254 245 258 245 254 242 272 272 271 272 268 268 268 265 262 263 261 275 270 268 270
280 287 279 273 270 272 271 272 276 276 278 286 282 281 281 275 265 260 254 257 261 254 260 256 262 259 236 240 258 266 270 267 266 267 271 257 258 252 262 268 267 261 267 272
277 271 282 284 278 281 280 261 287 286 260 263 276 285 280 279 264 259 253 245 246 245 244 240 245 246 217 272 256 262 264 272 274 270 266 262 258 254 257 256 264 250 268 264
281 271 281 283 278 268 271 267 279 272 266 267 279 277 283 276 267 248 230 211 223 232 242 249 252 256 248 260 246 247 255 263 270 267 263 262 262 255 256 255 258 259 271 268
287 272 281 256 289 294 286 271 267 261 264 265 276 269 269 271 277 280 278 289 287 280 266 257 253 240 233 235 240 249 256 257 254 259 262 258 256 255 255 258 260 264 252 269
295 293 270 265 282 305 308 287 289 266 255 266 262 263 270 279 279 290 277 278 274 268 281 264 258 255 251 241 241 248 252 254 257 264 262 261 262 260 257 259 261 261 258 263
305 290 322 262 304 300 281 270 263 255 256 302 276 268 272 260 265 264 257 251 259 265 271 263 268 256 248 232 234 240 245 251 257 262 266 263 258 256 255 255 254 254 252 258
290 295 289 331 291 319 291 257 231 254 281 312 337 282 270 304 307 279 272 272 271 288 290 254 261 240 229 225 235 243 249 245 255 261 265 262 260 260 260 255 251 262 259 257
292 303 289 294 286 293 224 215 213 229 277 315 321 318 303 291 292 280 269 267 273 286 277 259 249 234 226 226 233 239 239 242 251 259 260 261 263 264 262 256 256 252 249 256
280 321 274 280 275 285 259 222 215 233 252 280 292 308 302 294 283 274 270 258 260 260 256 246 227 202 208 217 226 232 238 253 260 260 262 266 268 265 263 261 258 253 254 257
267 70 37 259 243 243 227 212 250 265 284 296 298 299 305 304 289 271 266 261 242 234 234 218 225 207 207 216 226 234 245 252 259 266 268 270 271 271 265 260 263 264 259 258
145 296 270 287 281 280 283 275 284 291 291 287 284 288 296 294 277 280 261 259 241 226 214 207 213 207 209 225 232 231 243 259 268 273 275 276 276 276 276 267 263 258 260 260
351 330 316 290 294 298 294 288 287 288 287 288 282 278 279 275 267 279 262 259 245 220 202 207 206 203 218 220 216 222 240 254 269 275 282 285 285 284 286 282 268 261 263 264
311 297 309 314 310 306 303 296 294 296 294 285 278 274 260 253 257 271 255 249 239 212 196 202 205 214 219 216 222 232 244 262 272 272 279 287 293 294 287 277 274 274 268 265
301 313 308 308 306 306 306 308 309 303 287 291 283 267 241 244 246 268 256 236 224 201 202 213 210 216 223 228 229 237 248 263 275 274 270 275 286 298 301 293 281 276 274 272
319 317 319 314 320 314 323 321 318 314 298 287 255 233 233 242 241 265 264 243 223 203 207 208 214 220 231 241 239 243 253 263 274 276 268 268 275 289 296 296 290 282 279 275
322 323 323 318 321 315 303 305 316 328 314 275 255 238 237 246 241 252 242 203 176 195 199 211 218 233 234 240 243 249 258 266 273 270 265 271 278 285 288 291 293 287 281 275
328 322 323 323 307 302 293 295 296 302 300 280 256 249 254 254 241 235 243 206 201 197 210 223 226 224 230 237 248 258 262 260 264 265 270 277 279 281 285 288 287 281 278 275
328 330 316 315 322 334 313 312 303 295 287 270 265 257 252 236 236 232 233 231 220 220 224 230 234 240 244 249 249 247 253 265 266 270 281 283 281 283 283 286 278 272 271 273
318 322 321 298 304 304 310 312 311 305 308 291 269 258 249 240 231 233 232 234 238 238 242 247 248 248 250 253 247 254 268 273 272 272 277 279 278 279 279 273 265 268 273 278
317 319 326 320 299 296 300 304 310 298 287 284 280 277 264 243 231 231 238 242 245 248 247 249 254 257 254 255 256 267 272 273 272 273 274 273 270 267 262 262 266 274 280 283
309 308 308 313 318 301 292 293 295 291 283 276 272 269 262 258 253 246 245 248 249 254 255 254 254 255 256 258 264 270 271 271 272 272 270 269 264 258 260 269 276 280 284 289
297 298 296 297 301 306 306 292 284 279 276 279 276 275 272 268 264 261 257 255 255 257 257 256 259 263 267 270 269 268 268 267 265 264 261 257 257 268 274 278 283 288 292 297
293 295 290 286 284 290 297 303 291 281 275 270 270 276 276 272 270 269 266 261 259 259 260 261 264 268 270 267 265 263 259 257 256 253 257 265 271 275 279 284 288 293 299 303
291 291 286 279 276 275 280 284 292 287 278 275 271 269 268 268 268 266 268 267 264 263 263 265 268 267 263 262 263 263 260 256 258 261 265 268 273 278 283 288 293 297 300 304
284 284 281 277 274 272 271 274 274 278 283 278 273 271 269 270 269 267 266 265 264 263 261 260 262 263 263 261 259 256 254 255 259 261 265 271 277 281 286 291 294 297 301 304
280 279 277 274 273 270 267 266 266 267 271 278 281 277 274 272 269 268 266 263 264 266 265 261 257 255 255 255 254 253 255 258 260 263 269 274 280 285 290 292 295 298 300 303
Height
5520 5519 5520 5518 5519 5523 5518 5516 5511 5510 5508 5516 5514 5507 5508 5511 5517 5519 5517 5519 5525 5526 5531 5537 5539 5543 5545 5549 5548 5553 5556 5559 5561 5562 5564 5566 5566 5568 5569 5571 5571 5572 5573 5574
5501 5507 5504 5499 5504 5504 5503 5504 5501 5499 5500 5505 5500 5499 5501 5500 5501 5505 5509 5512 5515 5518 5521 5526 5529 5532 5534 5538 5540 5542 5545 5548 5550 5551 5553 5557 5558 5559 5559 5561 5562 5564 5565 5565
5485 5498 5493 5489 5494 5493 5494 5495 5492 5490 5495 5495 5495 5495 5494 5494 5492 5494 5497 5501 5505 5508 5514 5518 5520 5523 5523 5526 5531 5534 5535 5536 5540 5542 5544 5547 5548 5550 5552 5552 5554 5556 5555 5556
5480 5485 5482 5485 5484 5486 5486 5487 5486 5488 5489 5489 5490 5490 5489 5489 5489 5490 5491 5493 5497 5501 5504 5508 5511 5514 5517 5521 5522 5525 5528 5530 5531 5534 5535 5537 5538 5539 5541 5542 5545 5544 5544 5546
5478 5476 5477 5478 5480 5480 5478 5482 5480 5481 5482 5481 5483 5485 5484 5484 5486 5487 5487 5489 5493 5495 5498 5499 5502 5505 5508 5511 5513 5516 5518 5521 5522 5524 5525 5527 5528 5529 5531 5533 5534 5535 5535 5537
5473 5472 5471 5473 5475 5474 5472 5473 5474 5475 5475 5476 5478 5479 5480 5481 5482 5484 5485 5486 5488 5490 5492 5493 5494 5495 5498 5502 5505 5507 5510 5512 5513 5514 5517 5518 5518 5519 5521 5522 5524 5525 5526 5527
5469 5468 5466 5468 5469 5468 5468 5472 5470 5472 5472 5473 5473 5475 5477 5477 5478 5479 5481 5482 5483 5483 5484 5485 5485 5486 5490 5494 5497 5500 5502 5502 5505 5509 5510 5510 5510 5511 5512 5513 5514 5515 5517 5517
5465 5465 5466 5465 5465 5465 5465 5464 5466 5467 5469 5469 5470 5472 5473 5473 5473 5473 5475 5476 5476 5475 5474 5475 5476 5479 5482 5487 5490 5491 5493 5498 5500 5502 5502 5503 5503 5504 5505 5505 5506 5507 5507 5508
5463 5464 5461 5460 5461 5462 5461 5460 5462 5464 5465 5465 5466 5467 5467 5465 5466 5465 5465 5466 5466 5466 5465 5467 5467 5470 5475 5479 5482 5485 5489 5492 5494 5494 5494 5494 5494 5495 5495 5495 5496 5497 5497 5498
5459 5460 5456 5455 5457 5457 5458 5459 5460 5461 5462 5463 5463 5462 5461 5460 5458 5456 5454 5455 5457 5457 5459 5461 5463 5464 5469 5472 5477 5481 5484 5486 5487 5487 5487 5486 5486 5486 5486 5486 5485 5486 5487 5488
5454 5453 5453 5453 5452 5453 5453 5456 5458 5457 5457 5456 5455 5455 5454 5451 5449 5447 5446 5446 5447 5448 5452 5455 5458 5460 5464 5469 5473 5476 5479 5480 5481 5481 5480 5480 5478 5477 5476 5476 5477 5476 5477 5477
5452 5451 5451 5451 5451 5451 5452 5453 5453 5452 5451 5451 5450 5448 5446 5444 5441 5440 5439 5440 5441 5443 5447 5450 5454 5458 5462 5466 5469 5472 5474 5475 5475 5475 5474 5472 5471 5469 5467 5467 5466 5466 5467 5468
5449 5449 5450 5450 5450 5448 5448 5447 5445 5444 5443 5442 5439 5438 5437 5436 5435 5434 5433 5434 5435 5438 5441 5445 5451 5455 5459 5462 5465 5467 5469 5470 5470 5469 5468 5466 5464 5463 5461 5460 5460 5460 5460 5460
5448 5449 5448 5446 5445 5443 5440 5438 5435 5433 5431 5429 5428 5427 5427 5428 5429 5428 5427 5427 5430 5432 5437 5442 5447 5451 5455 5458 5461 5462 5463 5464 5464 5464 5463 5461 5459 5457 5456 5455 5454 5454 5453 5452
5446 5444 5442 5441 5438 5435 5432 5429 5427 5424 5421 5420 5419 5418 5420 5422 5423 5423 5422 5423 5426 5429 5434 5438 5443 5447 5450 5453 5455 5456 5457 5458 5458 5457 5456 5455 5454 5452 5451 5449 5448 5447 5447 5446
5443 5441 5438 5435 5432 5430 5427 5424 5422 5418 5415 5414 5413 5413 5416 5419 5419 5419 5419 5421 5422 5426 5430 5435 5439 5443 5446 5447 5449 5450 5451 5451 5451 5450 5449 5448 5448 5447 5445 5444 5442 5441 5440 5439
5439 5436 5433 5429 5426 5425 5423 5422 5419 5416 5413 5412 5411 5411 5414 5415 5416 5417 5417 5419 5420 5424 5428 5432 5435 5437 5439 5441 5443 5443 5444 5443 5443 5442 5442 5442 5441 5440 5439 5437 5436 5434 5434 5432
5433 5430 5427 5426 5424 5422 5419 5417 5415 5414 5412 5411 5410 5410 5411 5412 5413 5415 5416 5417 5418 5422 5425 5428 5429 5431 5433 5434 5435 5436 5436 5435 5435 5435 5435 5435 5434 5433 5431 5430 5429 5427 5427 5425
5431 5427 5425 5423 5420 5418 5416 5414 5411 5410 5409 5408 5407 5407 5408 5409 5410 5412 5413 5415 5416 5418 5420 5422 5424 5425 5426 5427 5427 5428 5428 5428 5428 5428 5427 5427 5426 5424 5423 5422 5420 5420 5419 5419
5427 5424 5421 5419 5417 5416 5413 5411 5409 5407 5406 5405 5404 5404 5404 5405 5406 5407 5409 5410 5411 5413 5415 5417 5418 5419 5419 5420 5421 5421 5421 5421 5420 5419 5419 5418 5417 5416 5414 5413 5413 5413 5412 5412
5423 5420 5417 5415 5413 5412 5410 5408 5406 5404 5403 5402 5401 5401 5401 5402 5403 5404 5405 5406 5407 5408 5409 5410 5411 5411 5412 5412 5413 5413 5412 5412 5411 5411 5410 5409 5408 5406 5406 5406 5406 5406 5405 5404
5418 5415 5413 5411 5409 5407 5405 5404 5402 5401 5399 5398 5398 5398 5398 5398 5398 5399 5399 5400 5401 5401 5401 5402 5403 5403 5404 5404 5404 5404 5403 5402 5402 5401 5400 5400 5399 5399 5400 5400 5400 5399 5398 5397
5411 5409 5407 5405 5404 5401 5399 5398 5397 5396 5395 5394 5394 5393 5393 5393 5393 5393 5393 5393 5394 5394 5394 5395 5395 5395 5395 5395 5394 5394 5393 5393 5393 5392 5393 5393 5394 5394 5394 5393 5393 5392 5390 5388
5402 5401 5399 5397 5396 5395 5393 5391 5389 5388 5388 5388 5388 5388 5388 5387 5386 5386 5386 5386 5386 5386 5386 5386 5387 5387 5387 5386 5386 5386 5385 5385 5385 5387 5387 5388 5388 5388 5387 5386 5385 5384 5382 5380
5392 5390 5388 5387 5387 5387 5386 5385 5383 5381 5380 5380 5380 5380 5380 5380 5380 5379 5379 5379 5379 5379 5379 5379 5379 5380 5380 5379 5379 5379 5380 5381 5381 5381 5381 5381 5381 5381 5380 5379 5378 5376 5374 5371
5380 5379 5378 5377 5376 5376 5376 5376 5375 5374 5373 5372 5371 5371 5371 5371 5372 5371 5371 5371 5372 5372 5373 5373 5373 5373 5373 5374 5374 5374 5375 5375 5374 5375 5375 5375 5375 5374 5373 5372 5370 5368 5365 5362
5368 5367 5366 5366 5365 5365 5366 5366 5366 5366 5366 5365 5364 5364 5363 5363 5363 5363 5364 5364 5364 5365 5365 5365 5366 5366 5367 5368 5368 5369 5369 5368 5368 5368 5368 5368 5367 5366 5365 5363 5361 5359 5356 5352